Location: Clermont
(50.2608°N, 4.3172°E)
Time: 21:53:38
(UTC+00:00)

ERBS - Pass Details

Date: 13 August 2020
Orbit: 412 x 420 km, 57.0° (Epoch: 22 September)

Event Time Altitude Azimuth Distance (km) Brightness Sun altitude
Rises 19:46:15 0° 276° (W) 2,357 7.4 -6.7°
Reaches altitude 10° 19:48:32 10° 289° (WNW) 1,493 6.6 -7.0°
Maximum altitude 19:51:27 27° 350° (N) 833 4.3 -7.4°
Drops below altitude 10° 19:54:22 10° 51° (NE) 1,492 4.9 -7.8°
Sets 19:56:39 0° 64° (ENE) 2,355 5.8 -8.1°
